Time,TemperatureF,DewpointF,PressureIn,WindDirection,WindDirectionDegrees,WindSpeedMPH,WindSpeedGustMPH,Humidity,HourlyPrecipIn,Conditions,Clouds,dailyrainin,SoftwareType,DateUTC
2013-02-17 00:00:00,43.8,32.7,28.97,North,-999,0.0,0.9,64,-99.99,,,-99.99,HOBO +U30 +Weather +,2013-02-17 08:00:00,
2013-02-17 00:05:00,43.2,32.3,28.97,North,-999,0.0,1.8,65,-99.99,,,-99.99,HOBO +U30 +Weather +,2013-02-17 08:05:00,
2013-02-17 00:10:00,42.2,31.7,28.97,North,-999,0.0,1.8,66,-99.99,,,-99.99,HOBO +U30 +Weather +,2013-02-17 08:10:00,
2013-02-17 00:15:00,41.9,31.9,28.97,North,-999,0.9,4.3,67,-99.99,,,-99.99,HOBO +U30 +Weather +,2013-02-17 08:15:00,
2013-02-17 00:20:00,42.4,32.8,28.96,North,-999,3.4,6.0,68,-99.99,,,-99.99,HOBO +U30 +Weather +,2013-02-17 08:20:00,
2013-02-17 00:25:00,42.9,33.2,28.97,North,-999,3.4,6.7,68,-99.99,,,-99.99,HOBO +U30 +Weather +,2013-02-17 08:25:00,
2013-02-17 00:30:00,42.8,33.0,28.96,North,-999,0.9,3.4,68,-99.99,,,-99.99,HOBO +U30 +Weather +,2013-02-17 08:30:00,
2013-02-17 00:35:00,42.4,32.6,28.96,North,-999,0.0,2.5,68,-99.99,,,-99.99,HOBO +U30 +Weather +,2013-02-17 08:35:00,
2013-02-17 00:40:00,41.9,32.3,28.96,North,-999,0.0,1.8,68,-99.99,,,-99.99,HOBO +U30 +Weather +,2013-02-17 08:40:00,
2013-02-17 00:45:00,41.3,32.1,28.96,North,-999,0.0,2.5,69,-99.99,,,-99.99,HOBO +U30 +Weather +,2013-02-17 08:45:00,
2013-02-17 00:50:00,40.9,31.9,28.97,North,-999,0.0,0.9,70,-99.99,,,-99.99,HOBO +U30 +Weather +,2013-02-17 08:50:00,
2013-02-17 00:55:00,40.0,31.4,28.97,North,-999,0.0,1.8,71,-99.99,,,-99.99,HOBO +U30 +Weather +,2013-02-17 08:55:00,
2013-02-17 01:00:00,39.8,31.6,28.96,North,-999,0.0,2.5,72,-99.99,,,-99.99,HOBO +U30 +Weather +,2013-02-17 09:00:00,
2013-02-17 01:05:00,40.2,32.3,28.96,North,-999,1.8,4.3,73,-99.99,,,-99.99,HOBO +U30 +Weather +,2013-02-17 09:05:00,
2013-02-17 01:10:00,40.9,33.2,28.96,North,-999,3.4,6.0,73,-99.99,,,-99.99,HOBO +U30 +Weather +,2013-02-17 09:10:00,
2013-02-17 01:15:00,41.6,33.6,28.96,North,-999,3.4,5.1,73,-99.99,,,-99.99,HOBO +U30 +Weather +,2013-02-17 09:15:00,
2013-02-17 01:20:00,41.7,33.5,28.96,North,-999,2.5,5.1,72,-99.99,,,-99.99,HOBO +U30 +Weather +,2013-02-17 09:20:00,
2013-02-17 01:25:00,41.7,33.5,28.96,North,-999,2.5,5.1,72,-99.99,,,-99.99,HOBO +U30 +Weather +,2013-02-17 09:25:00,
2013-02-17 01:30:00,41.8,33.4,28.96,North,-999,3.4,6.0,71,-99.99,,,-99.99,HOBO +U30 +Weather +,2013-02-17 09:30:00,
2013-02-17 01:35:00,41.6,32.9,28.96,North,-999,3.4,6.0,71,-99.99,,,-99.99,HOBO +U30 +Weather +,2013-02-17 09:35:00,
2013-02-17 01:40:00,41.0,32.5,28.96,North,-999,3.4,6.0,71,-99.99,,,-99.99,HOBO +U30 +Weather +,2013-02-17 09:40:00,
2013-02-17 01:45:00,40.9,32.6,28.96,North,-999,3.4,5.1,72,-99.99,,,-99.99,HOBO +U30 +Weather +,2013-02-17 09:45:00,
2013-02-17 01:50:00,40.9,32.7,28.96,North,-999,1.8,4.3,72,-99.99,,,-99.99,HOBO +U30 +Weather +,2013-02-17 09:50:00,
2013-02-17 01:55:00,40.9,32.6,28.96,North,-999,1.8,4.3,72,-99.99,,,-99.99,HOBO +U30 +Weather +,2013-02-17 09:55:00,
2013-02-17 02:00:00,40.5,32.4,28.95,North,-999,0.9,3.4,72,-99.99,,,-99.99,HOBO +U30 +Weather +,2013-02-17 10:00:00,
2013-02-17 02:05:00,39.0,30.9,28.95,North,-999,0.0,2.5,72,-99.99,,,-99.99,HOBO +U30 +Weather +,2013-02-17 10:05:00,
2013-02-17 02:10:00,38.9,31.6,28.95,North,-999,0.0,2.5,74,-99.99,,,-99.99,HOBO +U30 +Weather +,2013-02-17 10:10:00,
2013-02-17 02:15:00,39.3,32.2,28.95,North,-999,0.0,0.9,75,-99.99,,,-99.99,HOBO +U30 +Weather +,2013-02-17 10:15:00,
2013-02-17 02:20:00,38.9,31.8,28.95,North,-999,0.0,0.9,75,-99.99,,,-99.99,HOBO +U30 +Weather +,2013-02-17 10:20:00,
2013-02-17 02:25:00,38.0,31.0,28.95,North,-999,0.0,1.8,75,-99.99,,,-99.99,HOBO +U30 +Weather +,2013-02-17 10:25:00,
2013-02-17 02:30:00,37.6,31.0,28.95,North,-999,0.0,0.9,76,-99.99,,,-99.99,HOBO +U30 +Weather +,2013-02-17 10:30:00,
2013-02-17 02:35:00,37.3,31.0,28.94,North,-999,0.0,0.9,77,-99.99,,,-99.99,HOBO +U30 +Weather +,2013-02-17 10:35:00,
2013-02-17 02:40:00,37.2,31.2,28.94,North,-999,0.0,1.8,78,-99.99,,,-99.99,HOBO +U30 +Weather +,2013-02-17 10:40:00,
2013-02-17 02:45:00,37.3,31.4,28.94,North,-999,0.0,0.9,79,-99.99,,,-99.99,HOBO +U30 +Weather +,2013-02-17 10:45:00,
2013-02-17 02:50:00,37.5,31.6,28.94,North,-999,0.0,0.0,79,-99.99,,,-99.99,HOBO +U30 +Weather +,2013-02-17 10:50:00,
2013-02-17 02:55:00,37.3,31.4,28.94,North,-999,0.0,0.9,78,-99.99,,,-99.99,HOBO +U30 +Weather +,2013-02-17 10:55:00,
2013-02-17 03:00:00,37.2,31.4,28.94,North,-999,0.0,0.9,79,-99.99,,,-99.99,HOBO +U30 +Weather +,2013-02-17 11:00:00,
2013-02-17 03:05:00,37.3,31.5,28.94,North,-999,0.0,0.9,79,-99.99,,,-99.99,HOBO +U30 +Weather +,2013-02-17 11:05:00,
2013-02-17 03:10:00,37.5,31.9,28.93,North,-999,0.0,0.9,79,-99.99,,,-99.99,HOBO +U30 +Weather +,2013-02-17 11:10:00,
2013-02-17 03:15:00,37.9,32.3,28.93,North,-999,0.0,0.9,79,-99.99,,,-99.99,HOBO +U30 +Weather +,2013-02-17 11:15:00,
2013-02-17 03:20:00,37.6,31.7,28.94,North,-999,0.0,0.0,79,-99.99,,,-99.99,HOBO +U30 +Weather +,2013-02-17 11:20:00,
2013-02-17 03:25:00,36.6,30.7,28.93,North,-999,0.0,0.0,78,-99.99,,,-99.99,HOBO +U30 +Weather +,2013-02-17 11:25:00,
2013-02-17 03:30:00,36.6,30.9,28.93,North,-999,0.0,0.9,79,-99.99,,,-99.99,HOBO +U30 +Weather +,2013-02-17 11:30:00,
2013-02-17 03:35:00,37.0,31.6,28.93,North,-999,0.0,2.5,80,-99.99,,,-99.99,HOBO +U30 +Weather +,2013-02-17 11:35:00,
2013-02-17 03:40:00,36.8,31.4,28.93,North,-999,0.0,0.0,80,-99.99,,,-99.99,HOBO +U30 +Weather +,2013-02-17 11:40:00,
2013-02-17 03:45:00,36.3,30.9,28.93,North,-999,0.0,0.0,80,-99.99,,,-99.99,HOBO +U30 +Weather +,2013-02-17 11:45:00,
2013-02-17 03:50:00,36.1,30.9,28.93,North,-999,0.0,1.8,81,-99.99,,,-99.99,HOBO +U30 +Weather +,2013-02-17 11:50:00,
2013-02-17 03:55:00,36.2,31.0,28.93,North,-999,0.0,0.9,81,-99.99,,,-99.99,HOBO +U30 +Weather +,2013-02-17 11:55:00,
2013-02-17 04:00:00,36.4,31.3,28.93,North,-999,0.0,0.9,81,-99.99,,,-99.99,HOBO +U30 +Weather +,2013-02-17 12:00:00,
2013-02-17 04:05:00,36.1,31.1,28.93,North,-999,0.0,0.0,81,-99.99,,,-99.99,HOBO +U30 +Weather +,2013-02-17 12:05:00,
2013-02-17 04:35:00,35.2,30.0,28.93,North,-999,0.0,0.9,81,-99.99,,,-99.99,HOBO +U30 +Weather +,2013-02-17 12:35:00,
2013-02-17 04:40:00,34.9,29.9,28.92,North,-999,0.0,1.8,81,-99.99,,,-99.99,HOBO +U30 +Weather +,2013-02-17 12:40:00,
2013-02-17 04:45:00,35.3,30.7,28.92,North,-999,0.0,1.8,83,-99.99,,,-99.99,HOBO +U30 +Weather +,2013-02-17 12:45:00,
2013-02-17 04:50:00,35.6,31.0,28.93,North,-999,0.0,0.0,83,-99.99,,,-99.99,HOBO +U30 +Weather +,2013-02-17 12:50:00,
2013-02-17 04:55:00,35.7,31.1,28.93,North,-999,0.0,0.0,83,-99.99,,,-99.99,HOBO +U30 +Weather +,2013-02-17 12:55:00,
2013-02-17 05:00:00,35.9,31.3,28.93,North,-999,0.0,0.0,83,-99.99,,,-99.99,HOBO +U30 +Weather +,2013-02-17 13:00:00,
2013-02-17 05:05:00,35.7,31.0,28.93,North,-999,0.0,0.0,82,-99.99,,,-99.99,HOBO +U30 +Weather +,2013-02-17 13:05:00,
2013-02-17 05:10:00,34.3,29.4,28.93,North,-999,0.0,0.0,82,-99.99,,,-99.99,HOBO +U30 +Weather +,2013-02-17 13:10:00,
2013-02-17 05:15:00,33.6,28.9,28.93,North,-999,0.0,0.0,82,-99.99,,,-99.99,HOBO +U30 +Weather +,2013-02-17 13:15:00,
2013-02-17 05:20:00,33.5,29.1,28.93,North,-999,0.0,0.0,83,-99.99,,,-99.99,HOBO +U30 +Weather +,2013-02-17 13:20:00,
2013-02-17 05:25:00,33.6,29.5,28.93,North,-999,0.0,0.0,84,-99.99,,,-99.99,HOBO +U30 +Weather +,2013-02-17 13:25:00,
2013-02-17 05:30:00,33.6,29.5,28.93,North,-999,0.0,0.0,84,-99.99,,,-99.99,HOBO +U30 +Weather +,2013-02-17 13:30:00,
2013-02-17 05:35:00,33.9,30.0,28.93,North,-999,0.0,0.9,85,-99.99,,,-99.99,HOBO +U30 +Weather +,2013-02-17 13:35:00,
2013-02-17 05:40:00,34.2,30.4,28.93,North,-999,0.0,0.9,85,-99.99,,,-99.99,HOBO +U30 +Weather +,2013-02-17 13:40:00,
2013-02-17 05:45:00,34.5,30.6,28.94,North,-999,0.0,0.9,85,-99.99,,,-99.99,HOBO +U30 +Weather +,2013-02-17 13:45:00,
2013-02-17 05:50:00,34.7,30.8,28.94,North,-999,0.9,3.4,85,-99.99,,,-99.99,HOBO +U30 +Weather +,2013-02-17 13:50:00,
2013-02-17 05:55:00,34.8,30.8,28.94,North,-999,1.8,4.3,85,-99.99,,,-99.99,HOBO +U30 +Weather +,2013-02-17 13:55:00,
2013-02-17 06:00:00,34.8,30.8,28.94,North,-999,0.9,3.4,85,-99.99,,,-99.99,HOBO +U30 +Weather +,2013-02-17 14:00:00,
2013-02-17 06:05:00,34.6,30.5,28.94,North,-999,0.0,2.5,84,-99.99,,,-99.99,HOBO +U30 +Weather +,2013-02-17 14:05:00,
2013-02-17 06:10:00,34.7,30.6,28.94,North,-999,0.9,3.4,84,-99.99,,,-99.99,HOBO +U30 +Weather +,2013-02-17 14:10:00,
2013-02-17 06:15:00,34.7,30.7,28.94,North,-999,0.0,1.8,85,-99.99,,,-99.99,HOBO +U30 +Weather +,2013-02-17 14:15:00,
2013-02-17 06:20:00,34.8,30.7,28.94,North,-999,0.0,1.8,84,-99.99,,,-99.99,HOBO +U30 +Weather +,2013-02-17 14:20:00,
2013-02-17 06:25:00,34.4,30.2,28.94,North,-999,0.0,0.9,84,-99.99,,,-99.99,HOBO +U30 +Weather +,2013-02-17 14:25:00,
2013-02-17 06:30:00,33.4,29.0,28.95,North,-999,0.0,0.0,83,-99.99,,,-99.99,HOBO +U30 +Weather +,2013-02-17 14:30:00,
2013-02-17 06:35:00,33.6,29.5,28.95,North,-999,0.0,0.9,84,-99.99,,,-99.99,HOBO +U30 +Weather +,2013-02-17 14:35:00,
2013-02-17 06:40:00,34.1,30.2,28.95,North,-999,0.0,0.0,85,-99.99,,,-99.99,HOBO +U30 +Weather +,2013-02-17 14:40:00,
2013-02-17 06:45:00,34.0,30.1,28.95,North,-999,0.0,0.0,85,-99.99,,,-99.99,HOBO +U30 +Weather +,2013-02-17 14:45:00,
2013-02-17 06:50:00,33.3,29.2,28.95,North,-999,0.0,0.9,84,-99.99,,,-99.99,HOBO +U30 +Weather +,2013-02-17 14:50:00,
2013-02-17 07:15:00,33.4,29.9,28.95,North,-999,0.0,0.0,86,-99.99,,,-99.99,HOBO +U30 +Weather +,2013-02-17 15:15:00,
2013-02-17 07:20:00,34.3,31.0,28.95,North,-999,0.0,1.8,87,-99.99,,,-99.99,HOBO +U30 +Weather +,2013-02-17 15:20:00,
2013-02-17 07:25:00,35.3,31.8,28.95,North,-999,0.0,0.0,87,-99.99,,,-99.99,HOBO +U30 +Weather +,2013-02-17 15:25:00,
2013-02-17 07:30:00,36.0,32.2,28.95,North,-999,0.0,0.9,85,-99.99,,,-99.99,HOBO +U30 +Weather +,2013-02-17 15:30:00,
2013-02-17 08:00:00,39.4,33.9,28.96,North,-999,0.0,0.0,80,-99.99,,,-99.99,HOBO +U30 +Weather +,2013-02-17 16:00:00,
2013-02-17 08:05:00,40.0,34.1,28.96,North,-999,0.0,0.9,79,-99.99,,,-99.99,HOBO +U30 +Weather +,2013-02-17 16:05:00,
2013-02-17 08:10:00,40.1,33.9,28.96,North,-999,0.0,1.8,78,-99.99,,,-99.99,HOBO +U30 +Weather +,2013-02-17 16:10:00,
2013-02-17 08:15:00,40.0,33.7,28.96,North,-999,0.0,1.8,78,-99.99,,,-99.99,HOBO +U30 +Weather +,2013-02-17 16:15:00,
2013-02-17 08:20:00,40.0,33.7,28.96,North,-999,0.9,2.5,78,-99.99,,,-99.99,HOBO +U30 +Weather +,2013-02-17 16:20:00,
2013-02-17 08:25:00,40.1,33.9,28.96,North,-999,0.9,3.4,78,-99.99,,,-99.99,HOBO +U30 +Weather +,2013-02-17 16:25:00,
2013-02-17 08:30:00,40.2,33.9,28.96,North,-999,1.8,3.4,77,-99.99,,,-99.99,HOBO +U30 +Weather +,2013-02-17 16:30:00,
2013-02-17 08:35:00,40.7,34.4,28.97,North,-999,0.9,3.4,78,-99.99,,,-99.99,HOBO +U30 +Weather +,2013-02-17 16:35:00,
2013-02-17 08:40:00,41.5,34.9,28.96,North,-999,0.9,3.4,77,-99.99,,,-99.99,HOBO +U30 +Weather +,2013-02-17 16:40:00,
2013-02-17 08:45:00,42.4,35.5,28.96,North,-999,0.9,2.5,76,-99.99,,,-99.99,HOBO +U30 +Weather +,2013-02-17 16:45:00,
2013-02-17 09:25:00,46.6,37.3,28.96,North,-999,0.9,3.4,69,-99.99,,,-99.99,HOBO +U30 +Weather +,2013-02-17 17:25:00,
2013-02-17 09:30:00,47.6,38.0,28.96,North,-999,0.9,4.3,69,-99.99,,,-99.99,HOBO +U30 +Weather +,2013-02-17 17:30:00,
2013-02-17 09:35:00,48.5,38.3,28.96,North,-999,0.9,4.3,67,-99.99,,,-99.99,HOBO +U30 +Weather +,2013-02-17 17:35:00,
2013-02-17 09:40:00,47.8,37.4,28.96,North,-999,1.8,4.3,67,-99.99,,,-99.99,HOBO +U30 +Weather +,2013-02-17 17:40:00,
2013-02-17 09:45:00,48.0,37.5,28.96,North,-999,0.9,4.3,66,-99.99,,,-99.99,HOBO +U30 +Weather +,2013-02-17 17:45:00,
2013-02-17 09:50:00,49.0,38.5,28.96,North,-999,0.9,4.3,66,-99.99,,,-99.99,HOBO +U30 +Weather +,2013-02-17 17:50:00,
2013-02-17 09:55:00,49.0,38.2,28.96,North,-999,0.9,5.1,66,-99.99,,,-99.99,HOBO +U30 +Weather +,2013-02-17 17:55:00,
2013-02-17 10:00:00,49.1,38.3,28.96,North,-999,0.9,3.4,66,-99.99,,,-99.99,HOBO +U30 +Weather +,2013-02-17 18:00:00,
2013-02-17 10:05:00,49.3,38.6,28.96,North,-999,0.9,5.1,66,-99.99,,,-99.99,HOBO +U30 +Weather +,2013-02-17 18:05:00,
2013-02-17 10:10:00,49.5,38.8,28.96,North,-999,0.9,4.3,66,-99.99,,,-99.99,HOBO +U30 +Weather +,2013-02-17 18:10:00,
2013-02-17 10:15:00,50.1,39.3,28.96,North,-999,0.0,3.4,66,-99.99,,,-99.99,HOBO +U30 +Weather +,2013-02-17 18:15:00,
2013-02-17 10:20:00,50.4,39.6,28.96,North,-999,0.9,4.3,66,-99.99,,,-99.99,HOBO +U30 +Weather +,2013-02-17 18:20:00,
2013-02-17 10:25:00,51.4,40.5,28.95,North,-999,0.0,3.4,66,-99.99,,,-99.99,HOBO +U30 +Weather +,2013-02-17 18:25:00,
2013-02-17 10:30:00,51.3,40.4,28.95,North,-999,0.0,2.5,65,-99.99,,,-99.99,HOBO +U30 +Weather +,2013-02-17 18:30:00,
2013-02-17 10:35:00,52.1,41.6,28.95,North,-999,0.0,2.5,67,-99.99,,,-99.99,HOBO +U30 +Weather +,2013-02-17 18:35:00,
2013-02-17 10:40:00,52.7,41.7,28.95,North,-999,0.0,2.5,66,-99.99,,,-99.99,HOBO +U30 +Weather +,2013-02-17 18:40:00,
2013-02-17 10:45:00,52.6,41.3,28.95,North,-999,0.9,4.3,65,-99.99,,,-99.99,HOBO +U30 +Weather +,2013-02-17 18:45:00,
2013-02-17 10:50:00,53.2,41.9,28.95,North,-999,0.0,3.4,65,-99.99,,,-99.99,HOBO +U30 +Weather +,2013-02-17 18:50:00,
2013-02-17 10:55:00,53.6,41.8,28.95,North,-999,0.0,3.4,64,-99.99,,,-99.99,HOBO +U30 +Weather +,2013-02-17 18:55:00,
2013-02-17 11:00:00,54.6,42.4,28.95,North,-999,0.9,6.0,63,-99.99,,,-99.99,HOBO +U30 +Weather +,2013-02-17 19:00:00,
2013-02-17 11:05:00,54.7,42.2,28.95,North,-999,1.8,6.0,62,-99.99,,,-99.99,HOBO +U30 +Weather +,2013-02-17 19:05:00,
2013-02-17 11:10:00,54.6,42.2,28.95,North,-999,2.5,6.0,62,-99.99,,,-99.99,HOBO +U30 +Weather +,2013-02-17 19:10:00,
2013-02-17 11:15:00,54.5,41.9,28.94,North,-999,2.5,6.7,62,-99.99,,,-99.99,HOBO +U30 +Weather +,2013-02-17 19:15:00,
2013-02-17 11:25:00,55.0,42.4,28.94,North,-999,1.8,5.1,62,-99.99,,,-99.99,HOBO +U30 +Weather +,2013-02-17 19:25:00,
2013-02-17 11:35:00,55.9,42.9,28.93,North,-999,2.5,6.7,61,-99.99,,,-99.99,HOBO +U30 +Weather +,2013-02-17 19:35:00,
2013-02-17 11:40:00,56.2,43.1,28.93,North,-999,1.8,6.0,61,-99.99,,,-99.99,HOBO +U30 +Weather +,2013-02-17 19:40:00,
2013-02-17 11:45:00,56.5,43.1,28.93,North,-999,2.5,6.7,60,-99.99,,,-99.99,HOBO +U30 +Weather +,2013-02-17 19:45:00,
2013-02-17 11:50:00,57.7,44.0,28.93,North,-999,0.9,6.0,60,-99.99,,,-99.99,HOBO +U30 +Weather +,2013-02-17 19:50:00,
2013-02-17 11:55:00,58.4,44.3,28.92,North,-999,0.9,5.1,59,-99.99,,,-99.99,HOBO +U30 +Weather +,2013-02-17 19:55:00,
2013-02-17 12:00:00,58.7,44.0,28.92,North,-999,0.9,5.1,57,-99.99,,,-99.99,HOBO +U30 +Weather +,2013-02-17 20:00:00,
2013-02-17 12:05:00,58.4,43.7,28.92,North,-999,1.8,6.0,58,-99.99,,,-99.99,HOBO +U30 +Weather +,2013-02-17 20:05:00,
2013-02-17 12:10:00,58.9,43.8,28.92,North,-999,1.8,6.7,57,-99.99,,,-99.99,HOBO +U30 +Weather +,2013-02-17 20:10:00,
2013-02-17 12:15:00,59.7,44.5,28.92,North,-999,0.9,7.6,57,-99.99,,,-99.99,HOBO +U30 +Weather +,2013-02-17 20:15:00,
2013-02-17 12:20:00,60.5,44.4,28.91,North,-999,0.9,4.3,55,-99.99,,,-99.99,HOBO +U30 +Weather +,2013-02-17 20:20:00,
2013-02-17 12:25:00,60.6,44.4,28.91,North,-999,0.9,6.0,55,-99.99,,,-99.99,HOBO +U30 +Weather +,2013-02-17 20:25:00,
2013-02-17 12:30:00,60.4,43.6,28.91,North,-999,1.8,6.0,53,-99.99,,,-99.99,HOBO +U30 +Weather +,2013-02-17 20:30:00,
2013-02-17 12:35:00,60.3,43.3,28.90,North,-999,2.5,6.7,53,-99.99,,,-99.99,HOBO +U30 +Weather +,2013-02-17 20:35:00,
2013-02-17 12:40:00,60.3,43.0,28.90,North,-999,3.4,7.6,52,-99.99,,,-99.99,HOBO +U30 +Weather +,2013-02-17 20:40:00,
2013-02-17 12:45:00,60.7,43.5,28.90,North,-999,2.5,6.7,52,-99.99,,,-99.99,HOBO +U30 +Weather +,2013-02-17 20:45:00,
2013-02-17 12:50:00,61.3,43.6,28.90,North,-999,2.5,6.7,52,-99.99,,,-99.99,HOBO +U30 +Weather +,2013-02-17 20:50:00,
2013-02-17 12:55:00,61.0,42.8,28.90,North,-999,4.3,8.5,51,-99.99,,,-99.99,HOBO +U30 +Weather +,2013-02-17 20:55:00,
2013-02-17 13:00:00,61.4,42.2,28.89,North,-999,3.4,8.5,49,-99.99,,,-99.99,HOBO +U30 +Weather +,2013-02-17 21:00:00,
2013-02-17 13:05:00,62.2,41.9,28.89,North,-999,3.4,8.5,47,-99.99,,,-99.99,HOBO +U30 +Weather +,2013-02-17 21:05:00,
2013-02-17 13:10:00,62.2,41.2,28.89,North,-999,4.3,9.4,46,-99.99,,,-99.99,HOBO +U30 +Weather +,2013-02-17 21:10:00,
2013-02-17 13:15:00,62.4,40.9,28.89,North,-999,3.4,7.6,45,-99.99,,,-99.99,HOBO +U30 +Weather +,2013-02-17 21:15:00,
2013-02-17 13:20:00,63.2,41.1,28.88,North,-999,3.4,9.4,44,-99.99,,,-99.99,HOBO +U30 +Weather +,2013-02-17 21:20:00,
2013-02-17 13:25:00,63.5,40.6,28.88,North,-999,4.3,10.3,42,-99.99,,,-99.99,HOBO +U30 +Weather +,2013-02-17 21:25:00,
2013-02-17 13:30:00,63.8,40.6,28.88,North,-999,3.4,6.7,42,-99.99,,,-99.99,HOBO +U30 +Weather +,2013-02-17 21:30:00,
2013-02-17 13:35:00,64.4,40.9,28.88,North,-999,1.8,6.0,42,-99.99,,,-99.99,HOBO +U30 +Weather +,2013-02-17 21:35:00,
2013-02-17 13:40:00,64.7,40.6,28.88,North,-999,2.5,7.6,41,-99.99,,,-99.99,HOBO +U30 +Weather +,2013-02-17 21:40:00,
2013-02-17 13:45:00,64.8,39.9,28.88,North,-999,4.3,8.5,40,-99.99,,,-99.99,HOBO +U30 +Weather +,2013-02-17 21:45:00,
2013-02-17 13:50:00,64.5,38.3,28.88,North,-999,3.4,8.5,38,-99.99,,,-99.99,HOBO +U30 +Weather +,2013-02-17 21:50:00,
2013-02-17 13:55:00,65.3,40.0,28.87,North,-999,1.8,7.6,39,-99.99,,,-99.99,HOBO +U30 +Weather +,2013-02-17 21:55:00,
2013-02-17 14:00:00,65.3,38.8,28.87,North,-999,2.5,6.7,37,-99.99,,,-99.99,HOBO +U30 +Weather +,2013-02-17 22:00:00,
2013-02-17 14:05:00,65.9,39.0,28.87,North,-999,1.8,6.0,37,-99.99,,,-99.99,HOBO +U30 +Weather +,2013-02-17 22:05:00,
2013-02-17 14:10:00,66.2,38.4,28.87,North,-999,1.8,6.7,35,-99.99,,,-99.99,HOBO +U30 +Weather +,2013-02-17 22:10:00,
2013-02-17 14:15:00,66.0,36.6,28.87,North,-999,2.5,6.0,33,-99.99,,,-99.99,HOBO +U30 +Weather +,2013-02-17 22:15:00,
2013-02-17 14:20:00,65.9,36.5,28.87,North,-999,3.4,8.5,33,-99.99,,,-99.99,HOBO +U30 +Weather +,2013-02-17 22:20:00,
2013-02-17 14:25:00,66.4,36.2,28.87,North,-999,1.8,6.7,32,-99.99,,,-99.99,HOBO +U30 +Weather +,2013-02-17 22:25:00,
2013-02-17 14:30:00,67.1,37.0,28.87,North,-999,1.8,6.7,33,-99.99,,,-99.99,HOBO +U30 +Weather +,2013-02-17 22:30:00,
2013-02-17 14:35:00,67.3,37.1,28.87,North,-999,1.8,6.0,32,-99.99,,,-99.99,HOBO +U30 +Weather +,2013-02-17 22:35:00,
2013-02-17 14:40:00,67.0,36.2,28.87,North,-999,1.8,6.7,31,-99.99,,,-99.99,HOBO +U30 +Weather +,2013-02-17 22:40:00,
2013-02-17 14:45:00,67.0,36.4,28.87,North,-999,2.5,6.7,32,-99.99,,,-99.99,HOBO +U30 +Weather +,2013-02-17 22:45:00,
2013-02-17 14:50:00,66.8,34.9,28.86,North,-999,3.4,8.5,30,-99.99,,,-99.99,HOBO +U30 +Weather +,2013-02-17 22:50:00,
2013-02-17 14:55:00,66.8,34.6,28.86,North,-999,2.5,6.7,30,-99.99,,,-99.99,HOBO +U30 +Weather +,2013-02-17 22:55:00,
2013-02-17 15:00:00,67.0,34.2,28.86,North,-999,1.8,7.6,29,-99.99,,,-99.99,HOBO +U30 +Weather +,2013-02-17 23:00:00,
2013-02-17 15:05:00,67.0,33.6,28.86,North,-999,1.8,6.0,28,-99.99,,,-99.99,HOBO +U30 +Weather +,2013-02-17 23:05:00,
2013-02-17 15:10:00,67.0,34.2,28.86,North,-999,2.5,6.0,29,-99.99,,,-99.99,HOBO +U30 +Weather +,2013-02-17 23:10:00,
2013-02-17 15:15:00,66.9,33.8,28.86,North,-999,2.5,6.7,29,-99.99,,,-99.99,HOBO +U30 +Weather +,2013-02-17 23:15:00,
2013-02-17 15:20:00,66.9,35.3,28.85,North,-999,2.5,6.7,31,-99.99,,,-99.99,HOBO +U30 +Weather +,2013-02-17 23:20:00,
2013-02-17 15:25:00,67.2,35.8,28.85,North,-999,0.9,4.3,31,-99.99,,,-99.99,HOBO +U30 +Weather +,2013-02-17 23:25:00,
2013-02-17 15:30:00,67.4,35.3,28.85,North,-999,0.9,4.3,30,-99.99,,,-99.99,HOBO +U30 +Weather +,2013-02-17 23:30:00,
2013-02-17 15:35:00,66.8,32.8,28.85,North,-999,2.5,6.7,28,-99.99,,,-99.99,HOBO +U30 +Weather +,2013-02-17 23:35:00,
2013-02-17 15:40:00,66.9,34.4,28.85,North,-999,0.9,4.3,29,-99.99,,,-99.99,HOBO +U30 +Weather +,2013-02-17 23:40:00,
2013-02-17 15:45:00,66.5,34.4,28.85,North,-999,2.5,6.0,30,-99.99,,,-99.99,HOBO +U30 +Weather +,2013-02-17 23:45:00,
2013-02-17 15:50:00,66.3,33.5,28.85,North,-999,1.8,4.3,29,-99.99,,,-99.99,HOBO +U30 +Weather +,2013-02-17 23:50:00,
2013-02-17 15:55:00,66.1,32.3,28.85,North,-999,2.5,6.7,28,-99.99,,,-99.99,HOBO +U30 +Weather +,2013-02-17 23:55:00,
2013-02-17 16:00:00,66.1,31.5,28.85,North,-999,1.8,5.1,27,-99.99,,,-99.99,HOBO +U30 +Weather +,2013-02-18 00:00:00,
2013-02-17 16:05:00,66.0,32.5,28.85,North,-999,1.8,5.1,28,-99.99,,,-99.99,HOBO +U30 +Weather +,2013-02-18 00:05:00,
2013-02-17 16:10:00,65.9,34.5,28.85,North,-999,1.8,5.1,31,-99.99,,,-99.99,HOBO +U30 +Weather +,2013-02-18 00:10:00,
2013-02-17 16:15:00,65.9,35.4,28.85,North,-999,0.9,5.1,32,-99.99,,,-99.99,HOBO +U30 +Weather +,2013-02-18 00:15:00,
2013-02-17 16:20:00,65.8,35.8,28.85,North,-999,0.9,5.1,32,-99.99,,,-99.99,HOBO +U30 +Weather +,2013-02-18 00:20:00,
2013-02-17 16:25:00,65.5,36.0,28.85,North,-999,0.9,5.1,33,-99.99,,,-99.99,HOBO +U30 +Weather +,2013-02-18 00:25:00,
2013-02-17 16:30:00,65.4,36.1,28.85,North,-999,0.9,6.0,33,-99.99,,,-99.99,HOBO +U30 +Weather +,2013-02-18 00:30:00,
2013-02-17 16:35:00,65.2,36.6,28.85,North,-999,0.9,4.3,34,-99.99,,,-99.99,HOBO +U30 +Weather +,2013-02-18 00:35:00,
2013-02-17 16:40:00,65.3,44.3,28.85,North,-999,2.5,7.6,46,-99.99,,,-99.99,HOBO +U30 +Weather +,2013-02-18 00:40:00,
2013-02-17 16:45:00,65.2,45.6,28.85,North,-999,2.5,8.5,49,-99.99,,,-99.99,HOBO +U30 +Weather +,2013-02-18 00:45:00,
2013-02-17 16:50:00,64.8,45.7,28.85,North,-999,1.8,6.0,49,-99.99,,,-99.99,HOBO +U30 +Weather +,2013-02-18 00:50:00,
2013-02-17 16:55:00,64.3,45.4,28.85,North,-999,2.5,8.5,50,-99.99,,,-99.99,HOBO +U30 +Weather +,2013-02-18 00:55:00,
2013-02-17 17:00:00,63.9,44.7,28.85,North,-999,0.9,6.7,49,-99.99,,,-99.99,HOBO +U30 +Weather +,2013-02-18 01:00:00,
2013-02-17 17:05:00,63.3,44.7,28.85,North,-999,0.9,6.7,50,-99.99,,,-99.99,HOBO +U30 +Weather +,2013-02-18 01:05:00,
2013-02-17 17:10:00,62.6,44.4,28.85,North,-999,0.9,4.3,51,-99.99,,,-99.99,HOBO +U30 +Weather +,2013-02-18 01:10:00,
2013-02-17 17:15:00,61.9,44.2,28.85,North,-999,0.0,3.4,52,-99.99,,,-99.99,HOBO +U30 +Weather +,2013-02-18 01:15:00,
2013-02-17 17:20:00,61.4,44.1,28.85,North,-999,0.0,4.3,52,-99.99,,,-99.99,HOBO +U30 +Weather +,2013-02-18 01:20:00,
2013-02-17 17:25:00,60.9,44.0,28.86,North,-999,0.0,2.5,53,-99.99,,,-99.99,HOBO +U30 +Weather +,2013-02-18 01:25:00,
2013-02-17 17:30:00,60.7,44.1,28.85,North,-999,0.0,1.8,54,-99.99,,,-99.99,HOBO +U30 +Weather +,2013-02-18 01:30:00,
2013-02-17 17:35:00,60.3,44.0,28.86,North,-999,0.0,2.5,54,-99.99,,,-99.99,HOBO +U30 +Weather +,2013-02-18 01:35:00,
2013-02-17 17:40:00,59.6,43.6,28.86,North,-999,0.9,3.4,55,-99.99,,,-99.99,HOBO +U30 +Weather +,2013-02-18 01:40:00,
2013-02-17 17:45:00,59.0,43.2,28.86,North,-999,0.9,6.7,55,-99.99,,,-99.99,HOBO +U30 +Weather +,2013-02-18 01:45:00,
2013-02-17 17:50:00,58.6,43.1,28.86,North,-999,2.5,6.0,56,-99.99,,,-99.99,HOBO +U30 +Weather +,2013-02-18 01:50:00,
2013-02-17 17:55:00,58.3,42.7,28.86,North,-999,2.5,6.7,56,-99.99,,,-99.99,HOBO +U30 +Weather +,2013-02-18 01:55:00,
2013-02-17 18:00:00,58.1,42.4,28.87,North,-999,0.9,4.3,55,-99.99,,,-99.99,HOBO +U30 +Weather +,2013-02-18 02:00:00,
2013-02-17 18:05:00,57.7,42.0,28.87,North,-999,0.9,6.0,55,-99.99,,,-99.99,HOBO +U30 +Weather +,2013-02-18 02:05:00,
2013-02-17 18:10:00,57.5,41.8,28.87,North,-999,0.0,0.9,55,-99.99,,,-99.99,HOBO +U30 +Weather +,2013-02-18 02:10:00,
2013-02-17 18:15:00,57.2,41.4,28.87,North,-999,0.0,0.9,55,-99.99,,,-99.99,HOBO +U30 +Weather +,2013-02-18 02:15:00,
2013-02-17 18:20:00,57.0,40.9,28.87,North,-999,0.0,1.8,54,-99.99,,,-99.99,HOBO +U30 +Weather +,2013-02-18 02:20:00,
2013-02-17 18:25:00,56.7,40.5,28.87,North,-999,0.0,0.9,54,-99.99,,,-99.99,HOBO +U30 +Weather +,2013-02-18 02:25:00,
2013-02-17 18:30:00,56.4,40.1,28.87,North,-999,0.0,0.9,54,-99.99,,,-99.99,HOBO +U30 +Weather +,2013-02-18 02:30:00,
2013-02-17 18:35:00,56.1,39.8,28.87,North,-999,0.0,1.8,54,-99.99,,,-99.99,HOBO +U30 +Weather +,2013-02-18 02:35:00,
2013-02-17 18:40:00,55.8,39.5,28.87,North,-999,0.0,1.8,54,-99.99,,,-99.99,HOBO +U30 +Weather +,2013-02-18 02:40:00,
2013-02-17 18:45:00,55.6,39.4,28.87,North,-999,0.0,1.8,54,-99.99,,,-99.99,HOBO +U30 +Weather +,2013-02-18 02:45:00,
2013-02-17 18:50:00,55.3,39.4,28.87,North,-999,0.0,0.9,55,-99.99,,,-99.99,HOBO +U30 +Weather +,2013-02-18 02:50:00,
2013-02-17 18:55:00,55.0,39.6,28.88,North,-999,0.0,1.8,55,-99.99,,,-99.99,HOBO +U30 +Weather +,2013-02-18 02:55:00,
2013-02-17 19:00:00,54.6,39.6,28.88,North,-999,0.0,1.8,56,-99.99,,,-99.99,HOBO +U30 +Weather +,2013-02-18 03:00:00,
2013-02-17 19:05:00,54.3,39.7,28.88,North,-999,0.0,1.8,57,-99.99,,,-99.99,HOBO +U30 +Weather +,2013-02-18 03:05:00,
2013-02-17 19:10:00,54.0,39.8,28.89,North,-999,0.0,0.9,58,-99.99,,,-99.99,HOBO +U30 +Weather +,2013-02-18 03:10:00,
2013-02-17 19:15:00,53.7,39.9,28.89,North,-999,0.0,0.9,59,-99.99,,,-99.99,HOBO +U30 +Weather +,2013-02-18 03:15:00,
2013-02-17 19:20:00,53.5,40.1,28.89,North,-999,0.0,0.0,60,-99.99,,,-99.99,HOBO +U30 +Weather +,2013-02-18 03:20:00,
2013-02-17 19:25:00,53.3,40.1,28.89,North,-999,0.0,1.8,60,-99.99,,,-99.99,HOBO +U30 +Weather +,2013-02-18 03:25:00,
2013-02-17 19:30:00,51.7,38.6,28.90,North,-999,0.0,0.9,60,-99.99,,,-99.99,HOBO +U30 +Weather +,2013-02-18 03:30:00,
2013-02-17 19:35:00,51.8,39.6,28.90,North,-999,0.0,1.8,63,-99.99,,,-99.99,HOBO +U30 +Weather +,2013-02-18 03:35:00,
2013-02-17 19:40:00,51.9,40.0,28.90,North,-999,0.0,1.8,63,-99.99,,,-99.99,HOBO +U30 +Weather +,2013-02-18 03:40:00,
2013-02-17 19:45:00,52.2,40.6,28.90,North,-999,0.9,3.4,64,-99.99,,,-99.99,HOBO +U30 +Weather +,2013-02-18 03:45:00,
2013-02-17 19:50:00,52.2,40.4,28.90,North,-999,0.0,3.4,63,-99.99,,,-99.99,HOBO +U30 +Weather +,2013-02-18 03:50:00,
2013-02-17 19:55:00,52.0,40.3,28.90,North,-999,0.0,1.8,64,-99.99,,,-99.99,HOBO +U30 +Weather +,2013-02-18 03:55:00,
2013-02-17 20:00:00,51.9,40.4,28.90,North,-999,0.9,3.4,64,-99.99,,,-99.99,HOBO +U30 +Weather +,2013-02-18 04:00:00,
2013-02-17 20:05:00,51.8,40.6,28.90,North,-999,0.0,1.8,65,-99.99,,,-99.99,HOBO +U30 +Weather +,2013-02-18 04:05:00,
2013-02-17 20:10:00,51.5,40.4,28.90,North,-999,0.0,1.8,65,-99.99,,,-99.99,HOBO +U30 +Weather +,2013-02-18 04:10:00,
2013-02-17 20:15:00,51.2,40.1,28.90,North,-999,0.0,4.3,65,-99.99,,,-99.99,HOBO +U30 +Weather +,2013-02-18 04:15:00,
2013-02-17 20:20:00,50.8,40.0,28.90,North,-999,0.0,2.5,66,-99.99,,,-99.99,HOBO +U30 +Weather +,2013-02-18 04:20:00,
2013-02-17 20:25:00,50.4,39.8,28.90,North,-999,0.0,3.4,66,-99.99,,,-99.99,HOBO +U30 +Weather +,2013-02-18 04:25:00,
2013-02-17 20:30:00,49.7,39.5,28.91,North,-999,0.0,2.5,67,-99.99,,,-99.99,HOBO +U30 +Weather +,2013-02-18 04:30:00,
2013-02-17 20:35:00,49.2,39.5,28.91,North,-999,0.9,3.4,68,-99.99,,,-99.99,HOBO +U30 +Weather +,2013-02-18 04:35:00,
2013-02-17 20:40:00,49.1,39.6,28.91,North,-999,0.0,0.9,69,-99.99,,,-99.99,HOBO +U30 +Weather +,2013-02-18 04:40:00,
2013-02-17 20:45:00,48.8,39.6,28.91,North,-999,0.9,2.5,70,-99.99,,,-99.99,HOBO +U30 +Weather +,2013-02-18 04:45:00,
2013-02-17 20:50:00,48.4,39.6,28.91,North,-999,1.8,4.3,71,-99.99,,,-99.99,HOBO +U30 +Weather +,2013-02-18 04:50:00,
2013-02-17 20:55:00,48.0,39.7,28.91,North,-999,1.8,4.3,72,-99.99,,,-99.99,HOBO +U30 +Weather +,2013-02-18 04:55:00,
2013-02-17 21:00:00,47.5,39.6,28.91,North,-999,0.9,3.4,73,-99.99,,,-99.99,HOBO +U30 +Weather +,2013-02-18 05:00:00,
2013-02-17 21:05:00,47.4,39.9,28.92,North,-999,0.9,3.4,75,-99.99,,,-99.99,HOBO +U30 +Weather +,2013-02-18 05:05:00,
2013-02-17 21:10:00,47.2,39.9,28.92,North,-999,0.9,3.4,75,-99.99,,,-99.99,HOBO +U30 +Weather +,2013-02-18 05:10:00,
2013-02-17 21:15:00,47.0,40.0,28.92,North,-999,0.9,3.4,76,-99.99,,,-99.99,HOBO +U30 +Weather +,2013-02-18 05:15:00,
2013-02-17 21:30:00,46.7,40.3,28.92,North,-999,0.0,2.5,78,-99.99,,,-99.99,HOBO +U30 +Weather +,2013-02-18 05:30:00,
2013-02-17 21:35:00,46.3,39.9,28.92,North,-999,0.9,1.8,78,-99.99,,,-99.99,HOBO +U30 +Weather +,2013-02-18 05:35:00,
2013-02-17 21:40:00,45.8,39.8,28.92,North,-999,0.9,2.5,79,-99.99,,,-99.99,HOBO +U30 +Weather +,2013-02-18 05:40:00,
2013-02-17 21:45:00,45.7,39.8,28.92,North,-999,0.9,3.4,79,-99.99,,,-99.99,HOBO +U30 +Weather +,2013-02-18 05:45:00,
2013-02-17 21:50:00,45.7,39.9,28.92,North,-999,0.9,2.5,80,-99.99,,,-99.99,HOBO +U30 +Weather +,2013-02-18 05:50:00,
2013-02-17 21:55:00,45.6,39.9,28.92,North,-999,0.9,2.5,80,-99.99,,,-99.99,HOBO +U30 +Weather +,2013-02-18 05:55:00,
2013-02-17 22:00:00,45.4,39.7,28.92,North,-999,0.9,3.4,80,-99.99,,,-99.99,HOBO +U30 +Weather +,2013-02-18 06:00:00,
2013-02-17 22:05:00,45.4,39.8,28.92,North,-999,1.8,3.4,80,-99.99,,,-99.99,HOBO +U30 +Weather +,2013-02-18 06:05:00,
2013-02-17 22:10:00,45.3,39.8,28.92,North,-999,0.0,2.5,80,-99.99,,,-99.99,HOBO +U30 +Weather +,2013-02-18 06:10:00,
2013-02-17 22:15:00,45.1,39.6,28.92,North,-999,0.0,0.0,80,-99.99,,,-99.99,HOBO +U30 +Weather +,2013-02-18 06:15:00,
2013-02-17 22:20:00,45.4,40.0,28.92,North,-999,0.0,1.8,81,-99.99,,,-99.99,HOBO +U30 +Weather +,2013-02-18 06:20:00,
2013-02-17 22:25:00,45.2,39.7,28.93,North,-999,0.0,0.0,80,-99.99,,,-99.99,HOBO +U30 +Weather +,2013-02-18 06:25:00,
2013-02-17 22:30:00,44.7,39.0,28.93,North,-999,0.0,0.0,80,-99.99,,,-99.99,HOBO +U30 +Weather +,2013-02-18 06:30:00,
2013-02-17 22:35:00,44.8,39.5,28.93,North,-999,0.0,0.0,81,-99.99,,,-99.99,HOBO +U30 +Weather +,2013-02-18 06:35:00,
2013-02-17 22:40:00,44.9,39.8,28.92,North,-999,0.0,0.0,82,-99.99,,,-99.99,HOBO +U30 +Weather +,2013-02-18 06:40:00,
2013-02-17 22:45:00,44.8,39.8,28.92,North,-999,0.0,0.0,82,-99.99,,,-99.99,HOBO +U30 +Weather +,2013-02-18 06:45:00,
2013-02-17 22:50:00,44.5,39.5,28.93,North,-999,0.0,0.0,82,-99.99,,,-99.99,HOBO +U30 +Weather +,2013-02-18 06:50:00,
2013-02-17 22:55:00,44.4,39.5,28.93,North,-999,0.0,1.8,82,-99.99,,,-99.99,HOBO +U30 +Weather +,2013-02-18 06:55:00,
2013-02-17 23:00:00,44.3,39.5,28.93,North,-999,0.0,2.5,83,-99.99,,,-99.99,HOBO +U30 +Weather +,2013-02-18 07:00:00,
2013-02-17 23:05:00,44.2,39.5,28.93,North,-999,0.0,1.8,83,-99.99,,,-99.99,HOBO +U30 +Weather +,2013-02-18 07:05:00,
2013-02-17 23:10:00,43.8,38.9,28.93,North,-999,0.0,0.0,82,-99.99,,,-99.99,HOBO +U30 +Weather +,2013-02-18 07:10:00,
2013-02-17 23:15:00,43.5,38.7,28.93,North,-999,0.0,0.0,82,-99.99,,,-99.99,HOBO +U30 +Weather +,2013-02-18 07:15:00,
2013-02-17 23:20:00,43.6,39.0,28.93,North,-999,0.0,0.0,83,-99.99,,,-99.99,HOBO +U30 +Weather +,2013-02-18 07:20:00,
2013-02-17 23:25:00,43.6,39.2,28.93,North,-999,0.0,0.0,84,-99.99,,,-99.99,HOBO +U30 +Weather +,2013-02-18 07:25:00,
2013-02-17 23:30:00,43.5,39.1,28.93,North,-999,0.0,0.0,84,-99.99,,,-99.99,HOBO +U30 +Weather +,2013-02-18 07:30:00,
2013-02-17 23:35:00,43.5,39.3,28.93,North,-999,0.0,0.0,84,-99.99,,,-99.99,HOBO +U30 +Weather +,2013-02-18 07:35:00,
2013-02-17 23:40:00,43.7,39.5,28.93,North,-999,0.0,0.9,85,-99.99,,,-99.99,HOBO +U30 +Weather +,2013-02-18 07:40:00,
2013-02-17 23:45:00,43.9,39.7,28.93,North,-999,0.0,0.0,85,-99.99,,,-99.99,HOBO +U30 +Weather +,2013-02-18 07:45:00,
2013-02-17 23:50:00,43.9,39.6,28.93,North,-999,0.0,0.0,84,-99.99,,,-99.99,HOBO +U30 +Weather +,2013-02-18 07:50:00,
2013-02-17 23:55:00,43.9,39.7,28.94,North,-999,0.0,0.0,84,-99.99,,,-99.99,HOBO +U30 +Weather +,2013-02-18 07:55:00,